User: anonymous
Location: Brno
(49.2000°N, 16.6330°E)
Time: 14:25:58
(UTC+02:00)
Language:

Cosmos 1459 Rocket - Orbit

View from above orbital plane
View from above orbital plane
View from above satellite
View from above satellite

Ground track
Ground track

The orbit data is extracted from the following two-line orbital elements,

1 14059U 83042B   14203.93876973  .00000032  00000-0  15971-4 0  3590
2 14059 082.9742 128.8162 0042620 006.4735 062.1046 13.78453170569682
Epoch (UTC): 22 July 2014 22:31:49
Eccentricity: 0.0042620
inclination: 82.9742°
perigee height: 938 km
apogee height: 1000 km
right ascension of ascending node: 128.8162°
argument of perigee: 6.4735°
revolutions per day: 13.78453170
mean anomaly at epoch: 62.1046°
orbit number at epoch: 56968

The dashed part of the orbit path shows where the satellite is in the earth's shadow,  

DLR